Погода в Нижанковичах

Украина / Львовская область     49°40′49″N   22°48′20″E
темп.,
°C
ветер,
м/с
пор.,
м/с
влажн.,
%
обл.,
%
осадки,
мм/ч
давл.,
гПа
погр.,
м
31 июля, сб
сб3100:00+19зюз22730 0.0 101018
03:00+21ююз22665 0.0 100935
06:00+19юз226996 0.0 100922
09:00+25юз26526 0.0 1009354
12:00+29зюз463990 0.0 10091527
15:00+30зсз4637100 0.0 10072110
18:00+19з51195100 3.8 1009350
21:00+17ю0198100 7.8 101182
1 августа, вс
вс100:00+16юз229625 0.0 101123
03:00+15юз22940 0.0 101139
06:00+15ююз11920 0.0 101011
09:00+20ююв12795 0.0 1011186
12:00+26юв454894 0.0 1009981
15:00+29вюв464241 0.0 10071337
18:00+31ююв36417 0.0 10041629
21:00+19вюв358921 1.0 100389
2 августа, пн
пн200:00+18юз129612 1.9 100550
03:00+16з259720 2.1 1007105
06:00+16з3797100 0.0 1008456
09:00+16зсз4796100 0.3 1009516
12:00+15з3694100 0.7 1012475
15:00+17зсз458380 0.8 1012583
18:00+17з3474100 0.0 1013502
21:00+15юз2291100 0.1 101331
3 августа, вт
вт300:00+13зюз36954 0.0 1014112
03:00+13юз22950 0.0 101533
06:00+12юз22943 0.0 101624
09:00+18зюз13690 0.0 1016341
12:00+22зсз34516 0.2 10161619
15:00+24сз56466 0.3 10151951
18:00+23сз345056 0.0 10151326
21:00+18ююв117422 0.1 101511
4 августа, ср
ср400:00+17юв2278100 0.8 101529
03:00+15ююв22865 0.8 101524
06:00+14ююз22785 0.0 101415
09:00+20ююз1261100 0.0 1014168
12:00+27з253877 0.0 10131684
15:00+29з4734100 0.0 10122602
18:00+26ссв224996 0.0 1012369
21:00+21всв377198 0.0 1011124